sat.trackr.live / text

‹ back to catalog

STARLINK-36992

NORAD 68149 · 2026-049H

PAYLOAD ACTIVE UNKNOWN

§ Identity

Operator
Country
US
Launch date
2026-03-13
Launch site
AFWTR
Launch vehicle
Mass (kg)
RCS (m²)

Purposes: comms

External: N2YO · Heavens-Above · Gunter

§ Orbital elements

Epoch: 2026-09-20T00:51:40.681728Z

Period
93.91 min
Inclination
97.2840°
Eccentricity
0.0002007
Mean motion
15.33452038 rev/d
Perigee alt
464.1 km
Apogee alt
466.9 km
Semi-major
6,843.7 km
B*
4.3772e-4
RAAN
283.0564°
Arg perigee
90.2301°
Mean anomaly
269.9172°
Rev number
2,943

§ Raw data

STARLINK-369921 68149U 26049H   26263.03588752  .00014086  00000+0  43772-3 0  99902 68149  97.2840 283.0564 0002007  90.2301 269.9172 15.33452038 29430

JSON: /api/v1/satellites/68149 · /tle

For live sub-satellite position, see the globe view (requires WebGL).

§ Visibility from observer

Set your observer location to see the next 7 days of passes ≥ 10°. The values pass through the URL so the page stays shareable.

No JS? Fill the form by hand. The geolocation button needs JavaScript.